User: anonymous   Login
Location: Unspecified
(0.0000°N, 0.0000°E)
Time: 12:42:54
(UTC+00:00)
Language:

ERS-2 - Orbit

View from above orbital plane
View from above orbital plane
View from above satellite
View from above satellite

Ground track
Ground track

The orbit data is extracted from the following two-line orbital elements,

1 23560U 95021A   18200.23857930  .00000939  00000-0  45177-4 0  9990
2 23560  98.5335 251.1127 0004428  51.2286 308.9342 15.21857128235753
Epoch (UTC): 19 July 2018 05:43:33
Eccentricity: 0.0004428
inclination: 98.5335°
perigee height: 497 km
apogee height: 503 km
right ascension of ascending node: 251.1127°
argument of perigee: 51.2286°
revolutions per day: 15.21857128
mean anomaly at epoch: 308.9342°
orbit number at epoch: 23575

The dashed part of the orbit path shows where the satellite is in the earth's shadow,  

DLR